This is the latest recevied weather packets stored in our database for station/object W1RCP. If no packets are shown the sender has not sent any weather packets the latest 10 day(s).
| Time | Temp. | Humidity | Pressure | Rain* | Wind** | Luminosity | Snow |
|---|---|---|---|---|---|---|---|
| 1777985017 | 18.89° C | 72% | 1027.1 hPa | 0 mm | - | 147 W/m² | - |
| 1777984713 | 18.89° C | 71% | 1027.1 hPa | 0 mm | - | 53 W/m² | - |
| 1777984410 | 18.89° C | 73% | 1027.1 hPa | 0 mm | - | 51 W/m² | - |
| 1777984106 | 18.33° C | 74% | 1027.1 hPa | 0 mm | - | 50 W/m² | - |
| 1777983804 | 17.78° C | 74% | 1026.9 hPa | 0 mm | - | 49 W/m² | - |
| 1777983500 | 17.22° C | 76% | 1027 hPa | 0 mm | - | 47 W/m² | - |
| 1777983197 | 17.22° C | 78% | 1026.9 hPa | 0 mm | - | 47 W/m² | - |
| 1777982893 | 16.67° C | 79% | 1026.8 hPa | 0 mm | - | 46 W/m² | - |
| 1777982589 | 15.56° C | 82% | 1027 hPa | 0 mm | - | 44 W/m² | - |
| 1777982288 | 15° C | 87% | 1026.9 hPa | 0 mm | - | 41 W/m² | - |
| 1777981986 | 14.44° C | 89% | 1026.6 hPa | 0 mm | - | 39 W/m² | - |
| 1777981683 | 13.89° C | 91% | 1026.6 hPa | 0 mm | - | 37 W/m² | - |
| 1777981380 | 13.33° C | 92% | 1026.7 hPa | 0 mm | - | 34 W/m² | - |
| 1777981076 | 12.78° C | 92% | 1026.7 hPa | 0 mm | - | 32 W/m² | - |
| 1777980773 | 12.78° C | 93% | 1026.5 hPa | 0 mm | - | 30 W/m² | - |
| 1777980468 | 12.22° C | 93% | 1026.6 hPa | 0 mm | - | 27 W/m² | - |
| 1777980167 | 12.22° C | 93% | 1026.7 hPa | 0 mm | - | 25 W/m² | - |
| 1777979867 | 12.22° C | 94% | 1026.4 hPa | 0 mm | - | 22 W/m² | - |
| 1777979563 | 12.22° C | 94% | 1026.6 hPa | 0 mm | - | 18 W/m² | - |
| 1777979259 | 11.67° C | 94% | 1026.5 hPa | 0 mm | - | 14 W/m² | - |
| 1777978957 | 11.67° C | 94% | 1026.4 hPa | 0 mm | - | 10 W/m² | - |
| 1777978653 | 11.67° C | 94% | 1026.5 hPa | 0 mm | - | 7 W/m² | - |
| 1777978348 | 11.67° C | 94% | 1026.5 hPa | 0 mm | - | 4 W/m² | - |
| 1777978045 | 11.67° C | 94% | 1026.3 hPa | 0 mm | - | 3 W/m² | - |
| 1777977743 | 11.67° C | 94% | 1026.2 hPa | 0 mm | - | 1 W/m² | - |
* Rain latest hour (hover to see other rain measurements)
** Current wind speed in m/s (hover to see current wind gust speed)